CHINASAT 6C (ZX 6C) 1 44067U 19012A 21064.87133118 -.00000351 00000-0 00000+0 0 9998 2 44067 0.0485 241.3371 0002075 43.7182 322.4299 1.00273799 7387 CZ-3B R/B 1 44068U 19012B 21065.39012118 .00043473 15166-6 57825-3 0 9990 2 44068 24.1085 121.8125 6998909 318.7687 5.6340 2.70261166 16965